Location: Hoyos del Collado
(40.3594°N, 5.2003°W)
Time: 09:38:31
(UTC+00:00)

ATLAS 5 CENTAUR R/B - Visible Passes

Search period start: 24 July 2024 00:00
Search period end: 03 August 2024 00:00
Orbit: 416 x 1166 km, 63.3° (Epoch: 23 July)

Date Brightness Start Highest point End Pass type
(mag) Time Alt. Az. Time Alt. Az. Time Alt. Az.
24 Jul 2.9 02:01:26 10° NNW 02:06:19 49° NE 02:12:17 10° SE visible
24 Jul 3.1 03:45:28 10° WNW 03:50:03 28° WSW 03:55:24 10° S visible
25 Jul 3.3 01:30:40 10° NNW 01:35:19 38° NE 01:40:58 10° ESE visible
25 Jul 2.8 03:14:16 10° NW 03:19:09 36° WSW 03:21:59 24° SSW visible
26 Jul 3.7 00:59:55 10° NNW 01:04:17 30° NE 01:08:20 15° ESE visible
26 Jul 2.4 02:43:08 10° NW 02:48:12 48° WSW 02:48:53 45° SW visible
27 Jul 4.0 00:29:12 10° N 00:33:11 24° NE 00:36:22 15° E visible
27 Jul 2.2 02:12:03 10° NW 02:16:58 62° WSW 02:16:58 62° WSW visible
27 Jul 4.2 23:58:31 10° N 00:02:01 19° NE 00:04:54 13° E visible
28 Jul 2.2 01:41:00 10° NW 01:45:31 70° WNW 01:45:31 70° WNW visible
28 Jul 4.4 23:27:55 10° N 23:30:45 15° NE 23:33:43 11° ENE visible
29 Jul 2.3 01:09:57 10° NNW 01:14:21 67° N 01:14:21 67° N visible
29 Jul 4.6 22:57:32 10° NNE 22:59:26 12° NE 23:01:29 10° ENE visible
30 Jul 2.6 00:38:56 10° NNW 00:43:21 57° NNE 00:43:21 57° NNE visible
30 Jul 4.3 02:23:22 10° WNW 02:23:59 13° WNW 02:23:59 13° WNW visible
31 Jul 2.9 00:07:55 10° NNW 00:12:27 46° NE 00:12:27 46° NE visible
31 Jul 4.1 01:51:49 10° WNW 01:53:06 16° WNW 01:53:06 16° WNW visible
31 Jul 3.2 23:36:54 10° NNW 23:41:30 36° NE 23:41:36 36° NE visible
01 Aug 3.9 01:20:24 10° NW 01:22:16 21° WNW 01:22:16 21° WNW visible
01 Aug 3.5 23:05:55 10° NNW 23:10:11 28° NE 23:10:50 27° ENE visible
02 Aug 3.6 00:49:01 10° NW 00:51:29 28° WNW 00:51:29 28° WNW visible
02 Aug 3.8 22:34:57 10° N 22:38:49 22° NE 22:40:04 21° ENE visible
